Vertical_Velocity
-1 0 -1 -1 -0 0 0 -1 -0 -1 -0 -2 -1 -1 -1 -1 -1 -2 -1 -1 -2 -1 -1 -2 -2 1 -1 -1 -1 -1 -1 -0 -1 0 -1 -3 -2 -1 0 -1 -1 0 -3
0 -1 -1 0 1 0 -1 -1 -2 -1 -1 -1 -0 -1 -1 -1 1 -3 -2 -4 -1 -2 -1 -0 -1 -2 -3 -2 -1 0 2 -0 -1 1 4 0 2 1 -0 -1 -0 1 0
0 0 -2 -3 -1 0 1 0 0 -0 -0 -1 0 1 -1 -2 -2 -2 -4 -0 -3 1 -0 -3 0 -0 -1 -1 -2 -4 2 0 0 -2 -1 3 -2 -1 1 2 0 -0 1
-2 -1 -1 -2 -2 -1 -0 0 0 -1 -1 1 -1 -1 0 -3 -3 0 -1 -2 -3 1 -3 2 0 -2 -1 -1 -2 1 -6 -2 5 -0 -2 -4 2 1 -1 -1 1 -0 2
-1 0 -1 0 -2 -2 -1 0 0 -0 -2 1 1 -0 0 1 1 -1 -1 -1 1 -2 3 -4 0 1 -1 0 0 -1 1 -0 -4 -1 5 3 0 -1 1 -0 1 0 2
1 0 1 0 -0 -0 -1 -0 1 3 1 0 -0 1 -1 -1 1 -2 0 2 -0 -1 -1 1 -2 -0 3 0 0 -0 0 -0 1 3 -6 -4 1 3 0 -2 0 -0 -1
-0 -0 1 1 -1 -3 2 0 2 0 -0 1 -1 1 -2 1 -6 -1 1 -0 -1 -2 -1 -2 -2 1 1 3 2 1 1 -2 -1 -0 4 4 -1 -2 1 -1 -2 -1 3
-2 -0 1 2 0 -1 -2 3 2 -0 1 2 -3 1 -6 -1 -1 -8 3 1 2 1 1 1 -2 -2 -2 -0 -2 0 1 4 0 -1 4 3 3 20 2 -6 3 2 0
-2 -1 -1 -0 2 -0 -0 1 2 0 -1 -2 2 4 -5 -3 -4 -4 -5 0 1 2 1 1 -0 -0 1 -1 -1 -2 1 -0 0 0 -0 -0 -3 1 17 -3 3 -0 -3
-1 -0 -1 2 1 1 2 2 2 1 -0 1 -2 1 2 2 1 -0 1 1 0 2 -3 -4 -1 -2 -0 -0 -2 2 0 1 1 1 3 0 -4 3 5 4 4 2 0
1 2 -1 0 0 1 -0 2 -0 -0 -0 -0 -1 -1 1 2 1 1 -2 0 -3 2 4 -5 -1 -0 -1 -4 0 -1 -2 0 -1 1 -1 1 3 -1 4 5 4 2 -4
-1 -0 1 1 0 -1 2 0 1 -0 -1 1 2 2 1 0 -1 3 -1 1 -1 -1 0 -5 2 -2 -1 -1 -1 -3 -1 -2 -2 -0 -0 -0 -1 -6 -3 5 4 16 -8
0 -1 1 -2 -1 -1 1 1 1 1 1 2 1 2 -1 2 0 2 -2 0 -2 2 0 -3 -0 -2 -4 -2 1 -0 -3 -3 -2 1 -1 -2 -2 -0 2 3 4 63 2
-1 -1 -2 -1 1 -1 2 0 -0 3 1 2 2 0 1 -0 1 2 3 0 -6 -3 -1 -8 6 2 -1 -1 -2 -0 -2 -3 -2 1 -1 -2 -3 -3 2 2 -0 9 2
0 -1 -1 -0 -0 -1 -0 -0 -2 2 2 0 3 1 1 2 -1 0 1 0 1 -1 -2 -3 -6 2 -1 2 -0 -2 -0 -1 -1 -1 -2 -2 -2 -3 4 0 -3 4 5
-1 -1 -0 0 -1 0 -0 0 -1 1 1 1 0 3 -0 0 -0 -1 -1 3 1 0 -2 2 1 -2 -2 -3 1 -1 -0 -1 -0 -1 -0 -1 -1 -2 -0 -1 -4 0 4
-0 -0 -0 -0 2 1 -1 -1 -1 0 1 0 1 -1 2 -0 -0 3 -1 1 -2 3 -1 4 -3 -0 -2 -2 1 -0 -0 -0 -3 -0 -2 -4 -1 -1 -2 -2 -2 -1 -0
1 -1 -1 -2 3 1 -0 -2 2 -0 3 0 -1 2 2 1 0 0 -0 0 -3 1 -1 -1 -1 -2 -2 -2 0 1 -0 -2 -2 -1 -1 -2 -1 -1 -1 -1 -0 0 1
2 -0 -1 0 1 2 3 -1 2 2 1 -0 1 -1 0 2 0 1 -3 -3 -4 1 -0 0 1 -2 1 -2 -1 -1 -0 -1 -1 -1 -2 -1 -1 -1 0 -0 1 -0 -1
2 -2 -1 0 1 4 3 3 0 2 0 2 0 1 -3 -1 -1 3 -1 0 -7 1 -1 1 0 -2 0 -2 -3 -1 -0 -1 -1 -2 -2 -1 -2 -1 -0 -1 -2 -1 2
-3 -2 -0 1 1 -1 2 2 2 1 -1 -0 -1 3 -1 0 1 -2 -2 4 -3 1 -3 -0 -3 -0 -1 -2 -1 0 -1 -0 -1 -2 -1 -0 -0 1 0 -1 0 -1 -1
-0 -2 3 -1 -2 2 -1 3 1 -1 3 2 2 1 4 -0 -0 -3 0 -1 1 -1 -4 -1 -2 -2 -0 -3 -0 -1 0 1 -3 6 -4 -3 1 -1 1 -0 -0 -1 -0
0 -1 2 -2 -4 3 3 -0 5 -2 -2 2 1 2 4 1 -2 1 -1 0 -1 -1 -1 -1 0 1 -1 -0 0 1 0 -2 -1 -1 -0 -0 0 -1 -1 0 -0 -0 0
1 -1 1 1 -1 4 2 -2 3 5 0 -6 0 1 4 -0 -1 -2 0 1 -1 -1 0 -5 -0 -1 -2 -1 0 1 0 -0 -1 -1 -2 -1 -1 -1 -1 -2 -3 -1 -0
-0 2 2 -1 3 1 2 -1 -1 1 4 -0 -3 2 2 1 -2 -0 -1 0 -4 -3 0 -1 -1 -1 -1 -1 1 1 -0 -1 -1 -1 -1 -1 -1 -2 -1 -2 -1 -1 -2
3 1 4 4 -1 1 -0 1 -3 1 2 -2 -1 1 2 -0 -2 -0 -1 1 -2 0 -1 -1 -0 -2 -0 -1 -1 -1 -1 -1 -1 -0 -4 -2 -2 -1 -2 -1 -2 -2 -2
Height
3193 3193 3193 3193 3193 3193 3193 3192 3192 3191 3191 3190 3188 3187 3186 3184 3183 3181 3179 3178 3176 3174 3172 3170 3168 3167 3165 3164 3163 3162 3160 3159 3158 3157 3156 3155 3154 3153 3153 3152 3152 3151 3151
3191 3191 3191 3191 3190 3190 3190 3190 3189 3188 3188 3186 3186 3184 3182 3181 3180 3178 3176 3175 3174 3171 3169 3166 3164 3162 3161 3160 3159 3158 3156 3155 3154 3153 3152 3151 3150 3150 3149 3149 3149 3149 3148
3188 3188 3188 3188 3188 3187 3187 3186 3186 3185 3184 3183 3182 3180 3179 3177 3175 3174 3172 3171 3168 3167 3164 3162 3160 3158 3157 3155 3153 3152 3151 3150 3150 3148 3147 3146 3146 3145 3145 3145 3144 3145 3144
3186 3185 3185 3185 3184 3184 3184 3183 3182 3181 3180 3179 3177 3176 3174 3172 3170 3170 3168 3166 3163 3161 3159 3158 3155 3153 3152 3150 3149 3147 3145 3144 3144 3143 3143 3142 3141 3140 3140 3140 3140 3140 3140
3182 3182 3182 3181 3181 3180 3180 3179 3178 3177 3175 3174 3173 3171 3169 3168 3166 3164 3162 3160 3157 3154 3153 3150 3150 3148 3146 3144 3143 3142 3142 3139 3137 3138 3137 3137 3135 3136 3134 3134 3134 3134 3134
3178 3178 3177 3177 3176 3176 3175 3174 3173 3172 3170 3169 3167 3166 3163 3162 3160 3158 3156 3154 3151 3148 3147 3145 3143 3142 3140 3138 3137 3136 3136 3135 3133 3130 3130 3131 3130 3129 3129 3127 3127 3127 3127
3174 3173 3173 3172 3171 3171 3170 3169 3167 3165 3165 3163 3161 3160 3157 3156 3152 3152 3150 3148 3145 3143 3141 3139 3137 3134 3132 3132 3130 3129 3128 3128 3128 3127 3125 3123 3122 3122 3121 3120 3119 3119 3120
3169 3168 3168 3167 3165 3164 3164 3163 3161 3160 3158 3157 3155 3153 3149 3150 3146 3143 3145 3142 3140 3137 3135 3132 3130 3128 3127 3125 3123 3122 3120 3119 3120 3120 3119 3118 3117 3116 3111 3109 3112 3112 3114
3163 3163 3162 3161 3159 3158 3158 3157 3155 3153 3151 3150 3149 3148 3143 3142 3139 3137 3137 3137 3135 3132 3128 3126 3124 3122 3120 3118 3116 3114 3113 3112 3111 3111 3112 3111 3110 3111 3109 3106 3103 3104 3106
3157 3156 3156 3155 3154 3152 3151 3150 3148 3146 3144 3143 3141 3141 3140 3136 3134 3131 3131 3130 3129 3126 3123 3119 3117 3115 3114 3112 3108 3108 3106 3105 3104 3103 3103 3103 3103 3104 3103 3101 3100 3099 3099
3150 3149 3149 3148 3146 3145 3143 3142 3140 3139 3137 3136 3134 3132 3132 3130 3128 3126 3122 3122 3121 3122 3118 3113 3112 3110 3107 3105 3104 3102 3101 3099 3098 3097 3097 3097 3096 3097 3097 3094 3093 3092 3093
3142 3141 3141 3140 3139 3137 3135 3134 3132 3131 3130 3128 3127 3124 3122 3122 3120 3119 3117 3115 3113 3113 3112 3107 3107 3104 3102 3100 3099 3096 3095 3094 3093 3092 3091 3090 3089 3089 3089 3089 3086 3081 3085
3134 3133 3133 3131 3130 3128 3127 3126 3124 3123 3122 3120 3119 3117 3115 3114 3112 3111 3110 3109 3107 3106 3105 3100 3101 3099 3097 3095 3094 3090 3089 3088 3088 3086 3084 3083 3083 3084 3084 3082 3081 3073 3078
3126 3125 3123 3122 3121 3120 3118 3117 3116 3115 3114 3113 3111 3110 3108 3107 3106 3105 3104 3103 3100 3100 3099 3096 3096 3094 3092 3090 3088 3086 3085 3083 3081 3080 3078 3077 3077 3077 3076 3073 3072 3071 3073
3117 3115 3114 3113 3112 3111 3110 3109 3108 3107 3106 3105 3104 3102 3101 3100 3099 3098 3097 3097 3096 3093 3093 3092 3090 3090 3088 3086 3083 3082 3080 3078 3076 3074 3073 3072 3071 3069 3069 3065 3063 3066 3068
3108 3106 3105 3105 3104 3104 3103 3102 3101 3100 3099 3098 3097 3096 3094 3093 3092 3092 3091 3090 3089 3088 3086 3086 3086 3084 3083 3081 3080 3077 3075 3073 3072 3070 3069 3067 3065 3063 3061 3060 3059 3060 3062
3099 3098 3097 3096 3096 3095 3094 3094 3093 3092 3092 3091 3090 3089 3088 3087 3086 3085 3084 3084 3083 3082 3081 3080 3079 3079 3077 3077 3075 3073 3071 3069 3067 3065 3064 3062 3061 3059 3057 3055 3054 3055 3056
3091 3090 3088 3087 3087 3087 3086 3085 3086 3085 3084 3083 3083 3082 3081 3081 3080 3080 3079 3079 3077 3077 3075 3074 3074 3074 3072 3072 3070 3068 3066 3064 3062 3061 3059 3058 3056 3054 3053 3052 3050 3049 3049
3082 3081 3080 3078 3078 3077 3077 3077 3078 3077 3077 3076 3076 3076 3076 3076 3075 3074 3073 3072 3072 3072 3070 3070 3069 3068 3068 3067 3065 3063 3061 3059 3057 3055 3054 3052 3050 3049 3048 3047 3046 3045 3044
3073 3072 3071 3070 3069 3069 3069 3069 3069 3069 3070 3070 3070 3070 3071 3070 3070 3070 3069 3068 3067 3067 3067 3066 3064 3064 3064 3062 3060 3058 3056 3054 3053 3050 3048 3047 3045 3043 3042 3041 3040 3039 3038
3065 3063 3062 3061 3062 3062 3063 3062 3062 3063 3064 3064 3065 3065 3065 3066 3067 3067 3066 3065 3064 3063 3063 3062 3060 3059 3058 3056 3054 3053 3051 3049 3048 3045 3044 3042 3040 3038 3036 3034 3034 3033 3032
3056 3055 3054 3053 3055 3056 3057 3057 3057 3058 3059 3060 3061 3061 3062 3063 3063 3063 3063 3062 3061 3059 3059 3057 3056 3054 3052 3050 3049 3047 3045 3043 3041 3041 3038 3036 3035 3032 3031 3029 3028 3026 3025
3048 3047 3047 3048 3049 3049 3051 3052 3053 3054 3054 3057 3058 3059 3060 3059 3060 3060 3059 3059 3057 3055 3053 3052 3050 3048 3046 3044 3043 3041 3040 3038 3036 3034 3033 3030 3028 3026 3024 3023 3021 3020 3019
3042 3040 3041 3043 3044 3045 3049 3050 3050 3050 3052 3053 3055 3056 3056 3056 3056 3055 3056 3055 3054 3052 3049 3047 3045 3043 3041 3039 3037 3035 3034 3032 3030 3029 3027 3025 3023 3020 3019 3017 3015 3013 3011
3037 3036 3037 3040 3040 3042 3045 3048 3048 3048 3049 3049 3051 3052 3052 3052 3051 3051 3050 3049 3049 3046 3044 3042 3040 3038 3036 3034 3032 3030 3028 3026 3024 3023 3021 3018 3016 3014 3013 3011 3010 3007 3005
3033 3033 3033 3035 3037 3039 3043 3044 3045 3046 3046 3046 3047 3048 3047 3047 3046 3046 3045 3045 3042 3040 3039 3037 3035 3033 3031 3028 3026 3024 3023 3021 3019 3017 3014 3013 3009 3008 3006 3004 3002 3000 2998